HISTORICAL SENSOR DATA

Sensor Data Report

DB LIVE
CURRENT TIME--:--:--
DEVICE NETWORK Gateway Status
13 ESP · realtime ~1s · history 60s
Weather WS-MOD-01
OFFLINE
Actuator ACT-MOD-01
OFFLINE
Mainboard L3 MB-L3-01
OFFLINE
Mainboard L5 MB-L5-01
OFFLINE
Remote AC AC-REMOTE-01
OFFLINE
PZEM L3-01 PWR-L3-01
OFFLINE
PZEM L3-02 PWR-L3-02
OFFLINE
PZEM L3-03 PWR-L3-03
OFFLINE
PZEM L3-04 PWR-L3-04
OFFLINE
PZEM L5-01 PWR-L5-01
OFFLINE
PZEM L5-02 PWR-L5-02
OFFLINE
PZEM L5-03 PWR-L5-03
OFFLINE
PZEM L5-04 PWR-L5-04
OFFLINE
REPORT FILTER

Periode & Sensor

DATABASE HISTORY
RESET
QUICK RANGE Hari ini 7 hari 30 hari
PERIODE31 Aug 2026sampai 06 Sep 2026
TOTAL DATA40,859sensor readings
MINIMUM-0.50sesuai filter
AVERAGE59.90sesuai filter
MAXIMUM11,921.20sesuai filter
REPORT RESULT

Data Sensor

31/08/2026 — 06/09/2026 EXPORT CSV
NOTANGGALWAKTUDEVICECHANNELSENSORVALUEUNIT
10501 02/09/2026 15:24:38 WS-MOD-01Weather Station Module WS-TEMP Suhu Udara 29.80 °C
10502 02/09/2026 15:24:38 WS-MOD-01Weather Station Module WS-DIR Arah Angin 297.60 °
10503 02/09/2026 15:24:33 WS-MOD-01Weather Station Module WS-PRES Tekanan Udara 998.00 hPa
10504 02/09/2026 15:24:33 WS-MOD-01Weather Station Module WS-TEMP Suhu Udara 29.80 °C
10505 02/09/2026 15:24:33 WS-MOD-01Weather Station Module WS-DIR Arah Angin 297.50 °
10506 02/09/2026 15:24:33 WS-MOD-01Weather Station Module WS-RH Kelembapan Udara 63.40 %RH
10507 02/09/2026 15:24:33 WS-MOD-01Weather Station Module WS-WIND Kecepatan Angin 0.04 m/s
10508 02/09/2026 15:24:29 WS-MOD-01Weather Station Module WS-PRES Tekanan Udara 998.00 hPa
10509 02/09/2026 15:24:29 WS-MOD-01Weather Station Module WS-TEMP Suhu Udara 29.80 °C
10510 02/09/2026 15:24:29 WS-MOD-01Weather Station Module WS-DIR Arah Angin 297.70 °
10511 02/09/2026 15:24:29 WS-MOD-01Weather Station Module WS-RH Kelembapan Udara 63.50 %RH
10512 02/09/2026 15:24:29 WS-MOD-01Weather Station Module WS-WIND Kecepatan Angin 0.03 m/s
10513 02/09/2026 15:24:23 WS-MOD-01Weather Station Module WS-DIR Arah Angin 297.60 °
10514 02/09/2026 15:24:23 WS-MOD-01Weather Station Module WS-RH Kelembapan Udara 63.60 %RH
10515 02/09/2026 15:24:23 WS-MOD-01Weather Station Module WS-WIND Kecepatan Angin 0.02 m/s
10516 02/09/2026 15:24:23 WS-MOD-01Weather Station Module WS-PRES Tekanan Udara 998.00 hPa
10517 02/09/2026 15:24:23 WS-MOD-01Weather Station Module WS-TEMP Suhu Udara 29.80 °C
10518 02/09/2026 15:24:19 WS-MOD-01Weather Station Module WS-RH Kelembapan Udara 63.50 %RH
10519 02/09/2026 15:24:19 WS-MOD-01Weather Station Module WS-WIND Kecepatan Angin 0.02 m/s
10520 02/09/2026 15:24:19 WS-MOD-01Weather Station Module WS-PRES Tekanan Udara 998.00 hPa
10521 02/09/2026 15:24:19 WS-MOD-01Weather Station Module WS-TEMP Suhu Udara 29.70 °C
10522 02/09/2026 15:24:19 WS-MOD-01Weather Station Module WS-DIR Arah Angin 297.60 °
10523 02/09/2026 15:24:14 WS-MOD-01Weather Station Module WS-WIND Kecepatan Angin 0.02 m/s
10524 02/09/2026 15:24:14 WS-MOD-01Weather Station Module WS-PRES Tekanan Udara 998.00 hPa
10525 02/09/2026 15:24:14 WS-MOD-01Weather Station Module WS-TEMP Suhu Udara 29.70 °C
10526 02/09/2026 15:24:14 WS-MOD-01Weather Station Module WS-RH Kelembapan Udara 63.40 %RH
10527 02/09/2026 15:24:08 WS-MOD-01Weather Station Module WS-PRES Tekanan Udara 998.00 hPa
10528 02/09/2026 15:24:08 WS-MOD-01Weather Station Module WS-TEMP Suhu Udara 29.70 °C
10529 02/09/2026 15:24:08 WS-MOD-01Weather Station Module WS-DIR Arah Angin 299.10 °
10530 02/09/2026 15:24:08 WS-MOD-01Weather Station Module WS-RH Kelembapan Udara 63.10 %RH
10531 02/09/2026 15:24:08 WS-MOD-01Weather Station Module WS-WIND Kecepatan Angin 0.02 m/s
10532 02/09/2026 15:24:04 WS-MOD-01Weather Station Module WS-TEMP Suhu Udara 29.70 °C
10533 02/09/2026 15:24:04 WS-MOD-01Weather Station Module WS-DIR Arah Angin 299.50 °
10534 02/09/2026 15:24:04 WS-MOD-01Weather Station Module WS-RH Kelembapan Udara 63.50 %RH
10535 02/09/2026 15:24:04 WS-MOD-01Weather Station Module WS-WIND Kecepatan Angin 0.02 m/s
10536 02/09/2026 15:24:04 WS-MOD-01Weather Station Module WS-PRES Tekanan Udara 998.00 hPa
10537 02/09/2026 15:23:59 WS-MOD-01Weather Station Module WS-DIR Arah Angin 298.10 °
10538 02/09/2026 15:23:59 WS-MOD-01Weather Station Module WS-RH Kelembapan Udara 63.50 %RH
10539 02/09/2026 15:23:59 WS-MOD-01Weather Station Module WS-WIND Kecepatan Angin 0.02 m/s
10540 02/09/2026 15:23:59 WS-MOD-01Weather Station Module WS-PRES Tekanan Udara 998.00 hPa
10541 02/09/2026 15:23:59 WS-MOD-01Weather Station Module WS-TEMP Suhu Udara 29.80 °C
10542 02/09/2026 15:23:54 WS-MOD-01Weather Station Module WS-RH Kelembapan Udara 63.50 %RH
10543 02/09/2026 15:23:54 WS-MOD-01Weather Station Module WS-WIND Kecepatan Angin 0.03 m/s
10544 02/09/2026 15:23:54 WS-MOD-01Weather Station Module WS-PRES Tekanan Udara 998.00 hPa
10545 02/09/2026 15:23:54 WS-MOD-01Weather Station Module WS-TEMP Suhu Udara 29.70 °C
10546 02/09/2026 15:23:54 WS-MOD-01Weather Station Module WS-DIR Arah Angin 303.50 °
10547 02/09/2026 15:23:48 WS-MOD-01Weather Station Module WS-PRES Tekanan Udara 998.00 hPa
10548 02/09/2026 15:23:48 WS-MOD-01Weather Station Module WS-TEMP Suhu Udara 29.70 °C
10549 02/09/2026 15:23:48 WS-MOD-01Weather Station Module WS-DIR Arah Angin 302.30 °
10550 02/09/2026 15:23:48 WS-MOD-01Weather Station Module WS-RH Kelembapan Udara 63.40 %RH
10551 02/09/2026 15:23:48 WS-MOD-01Weather Station Module WS-WIND Kecepatan Angin 0.01 m/s
10552 02/09/2026 15:23:44 WS-MOD-01Weather Station Module WS-PRES Tekanan Udara 998.00 hPa
10553 02/09/2026 15:23:44 WS-MOD-01Weather Station Module WS-TEMP Suhu Udara 29.70 °C
10554 02/09/2026 15:23:44 WS-MOD-01Weather Station Module WS-DIR Arah Angin 298.70 °
10555 02/09/2026 15:23:44 WS-MOD-01Weather Station Module WS-RH Kelembapan Udara 63.50 %RH
10556 02/09/2026 15:23:44 WS-MOD-01Weather Station Module WS-WIND Kecepatan Angin 0.04 m/s
10557 02/09/2026 15:23:43 WS-MOD-01Weather Station Module WS-DIR Arah Angin 300.40 °
10558 02/09/2026 15:23:43 WS-MOD-01Weather Station Module WS-RH Kelembapan Udara 63.50 %RH
10559 02/09/2026 15:23:43 WS-MOD-01Weather Station Module WS-WIND Kecepatan Angin 0.02 m/s
10560 02/09/2026 15:23:43 WS-MOD-01Weather Station Module WS-PRES Tekanan Udara 998.00 hPa
10561 02/09/2026 15:23:43 WS-MOD-01Weather Station Module WS-TEMP Suhu Udara 29.70 °C
10562 02/09/2026 15:23:37 WS-MOD-01Weather Station Module WS-DIR Arah Angin 288.70 °
10563 02/09/2026 15:23:37 WS-MOD-01Weather Station Module WS-RH Kelembapan Udara 63.50 %RH
10564 02/09/2026 15:23:37 WS-MOD-01Weather Station Module WS-WIND Kecepatan Angin 0.02 m/s
10565 02/09/2026 15:23:37 WS-MOD-01Weather Station Module WS-PRES Tekanan Udara 998.00 hPa
10566 02/09/2026 15:23:37 WS-MOD-01Weather Station Module WS-TEMP Suhu Udara 29.70 °C
10567 02/09/2026 15:23:27 WS-MOD-01Weather Station Module WS-WIND Kecepatan Angin 0.04 m/s
10568 02/09/2026 15:23:27 WS-MOD-01Weather Station Module WS-PRES Tekanan Udara 998.00 hPa
10569 02/09/2026 15:23:27 WS-MOD-01Weather Station Module WS-TEMP Suhu Udara 29.70 °C
10570 02/09/2026 15:23:27 WS-MOD-01Weather Station Module WS-DIR Arah Angin 279.00 °
10571 02/09/2026 15:23:27 WS-MOD-01Weather Station Module WS-RH Kelembapan Udara 63.50 %RH
10572 02/09/2026 14:55:47 MB-L3-01Mainboard Lantai 3 L3-BGT-02 Black Globe Temperature 2 29.70 °C
10573 02/09/2026 14:55:47 MB-L3-01Mainboard Lantai 3 L3-RAD-01 Radiation 1 1.00 W/m²
10574 02/09/2026 14:55:47 MB-L5-01Mainboard Lantai 5 L5-AI-05 Analog Input 5 3.05 V
10575 02/09/2026 14:55:47 MB-L3-01Mainboard Lantai 3 L3-ST-01 Surface Temperature 1 29.80 °C
10576 02/09/2026 14:55:47 MB-L5-01Mainboard Lantai 5 L5-AI-04 Analog Input 4 3.05 V
10577 02/09/2026 14:55:47 MB-L5-01Mainboard Lantai 5 L5-ST-02 Surface Temperature 2 30.50 °C
10578 02/09/2026 14:55:47 MB-L5-01Mainboard Lantai 5 L5-AI-03 Analog Input 3 3.05 V
10579 02/09/2026 14:55:47 MB-L3-01Mainboard Lantai 3 L3-AI-05 Analog Input 5 3.12 V
10580 02/09/2026 14:55:47 MB-L3-01Mainboard Lantai 3 L3-SHT-02-T SHT20 2 Temperature 32.00 °C
10581 02/09/2026 14:55:47 MB-L5-01Mainboard Lantai 5 L5-ST-01 Surface Temperature 1 30.30 °C
10582 02/09/2026 14:55:47 MB-L5-01Mainboard Lantai 5 L5-AI-02 Analog Input 2 3.05 V
10583 02/09/2026 14:55:47 MB-L3-01Mainboard Lantai 3 L3-BGT-03 Black Globe Temperature 3 28.90 °C
10584 02/09/2026 14:55:47 MB-L3-01Mainboard Lantai 3 L3-LUX-05 Illuminance / LUX 5 56.60 lux
10585 02/09/2026 14:55:47 MB-L3-01Mainboard Lantai 3 L3-ST-02 Surface Temperature 2 29.70 °C
10586 02/09/2026 14:55:47 MB-L5-01Mainboard Lantai 5 L5-RAD-01 Radiation 1 1.00 W/m²
10587 02/09/2026 14:55:47 MB-L5-01Mainboard Lantai 5 L5-AI-01 Analog Input 1 3.05 V
10588 02/09/2026 14:55:47 MB-L5-01Mainboard Lantai 5 L5-SHT-02-T SHT20 2 Temperature 32.20 °C
10589 02/09/2026 14:55:47 MB-L3-01Mainboard Lantai 3 L3-AI-06 Analog Input 6 3.12 V
10590 02/09/2026 14:55:47 MB-L5-01Mainboard Lantai 5 L5-LUX-01 Illuminance / LUX 1 208.50 lux
10591 02/09/2026 14:55:47 MB-L3-01Mainboard Lantai 3 L3-LUX-06 Illuminance / LUX 6 31.30 lux
10592 02/09/2026 14:55:47 MB-L3-01Mainboard Lantai 3 L3-AI-01 Analog Input 1 3.12 V
10593 02/09/2026 14:55:47 MB-L5-01Mainboard Lantai 5 L5-LUX-05 Illuminance / LUX 5 435.50 lux
10594 02/09/2026 14:55:47 MB-L3-01Mainboard Lantai 3 L3-SHT-01-T SHT20 1 Temperature 32.10 °C
10595 02/09/2026 14:55:47 MB-L3-01Mainboard Lantai 3 L3-HFT-01 Heat Flow Temperature 1 29.40 °C
10596 02/09/2026 14:55:47 MB-L5-01Mainboard Lantai 5 L5-LUX-02 Illuminance / LUX 2 122.40 lux
10597 02/09/2026 14:55:47 MB-L5-01Mainboard Lantai 5 L5-BGT-03 Black Globe Temperature 3 29.90 °C
10598 02/09/2026 14:55:47 MB-L5-01Mainboard Lantai 5 L5-SHT-03-T SHT20 3 Temperature 32.00 °C
10599 02/09/2026 14:55:47 MB-L3-01Mainboard Lantai 3 L3-LUX-02 Illuminance / LUX 2 19.40 lux
10600 02/09/2026 14:55:47 MB-L3-01Mainboard Lantai 3 L3-SHT-01-RH SHT20 1 Humidity 48.20 %RH
Menampilkan maksimal 100 data per halaman